Location: Berkeley
(37.8716°N, 122.2727°W)
Time: 16:09:15
(UTC-07:00)

Envisat - Pass Details

Date: 17 May 2026
Orbit: 761 x 763 km, 98.4° (Epoch: 7 June)

Event Time Altitude Azimuth Distance (km) Brightness Sun altitude
Rises 03:59:04 0° 9° (N) 3,229 7.2 -19.7°
Reaches altitude 10° 04:01:23 10° 7° (N) 2,300 6.2 -19.4°
Maximum altitude 04:06:24 66° 286° (WNW) 829 3.0 -18.7°
Enters shadow 04:08:33 34° 215° (SW) 1,239 3.5 -18.4°
